Regional Weather Roundup
Issued by NWS State College, PA

Home | Current Version | Previous Version | Graphics & Text | Print | Product List | Glossary On
Versions: 1 2 3 4 5 6 7 8 9 10 11 12 13 14 15 16 17 18 19 20 21 22 23 24 25 26 27 28 29 30 31 32 33 34 35 36 37 38 39 40 41 42 43 44 45 46 47 48 49 50
787
ASUS41 KCTP 201603
RWRCTP

REGIONAL WEATHER ROUNDUP
NATIONAL WEATHER SERVICE STATE COLLEGE PA
1100 AM EST FRI JAN 20 2017

Note: "fair" indicates few or no clouds below 12,000 feet with no
significant weather and/or obstructions to visibility.

* = STATION THAT DOES NOT REPORT PRECIPITATION /E.G. RAIN...SNOW...ETC/
    THUNDER OR FOG.

PAZ002>004-007>009-013>016-020>023-029>032-201700-
WESTERN PENNSYLVANIA

CITY           SKY/WX    TMP DP  RH WIND       PRES   REMARKS
ERIE           LGT RAIN  42  37  82 SE6       29.71F
MEADVILLE      CLOUDY    39  36  89 VRB7      29.70F FOG
FRANKLIN*        N/A     37  36  93 SE9       29.74F
NEW CASTLE     LGT RAIN  43  42  97 VRB3      29.72F
BEAVER COUNTY  RAIN      41  41 100 S8        29.72S
BUTLER*        CLOUDY    43  39  87 SE6       29.75F
PITTSBURGH INT CLOUDY    44  44 100 SE7       29.72S
PITTSBURGH     CLOUDY    44  42  93 SE6       29.72S FOG
INDIANA*       CLOUDY    45  43  93 SE8       29.78F
LATROBE        PTSUNNY   50  46  87 SW6       29.75F
WASHINGTON CO* CLOUDY    46  45  93 S6        29.74R
$$

PAZ004>006-010>012-017>019-024>028-033>037-041-042-045-046-049>053-201700-
CENTRAL PENNSYLVANIA

CITY           SKY/WX    TMP DP  RH WIND       PRES   REMARKS
BRADFORD       LGT RAIN  36  36 100 SE9       29.78S FOG
DUBOIS         MIX PCPN  37  34  89 SE12      29.76F FOG
CLEARFIELD     RAIN      34  34 100 N5        29.83F FOG
JOHNSTOWN      CLOUDY    41  39  93 SE10      29.77F
ALTOONA        LGT RAIN  40  38  93 S3        29.84F FOG
STATE COLLEGE  RAIN      34  34 100 NW5       29.87F VSB 1/2
WILLIAMSPORT   LGT RAIN  36  33  89 VRB5      29.93F
SELINSGROVE    RAIN      33  32  96 SE3       29.95F FOG
FT INDIANTOWN  LGT RAIN  35  35 100 NE3       29.97F FOG
CAPITAL CITY   LGT RAIN  38  35  89 E8        29.96F FOG
HARRISBURG     LGT RAIN  38  37  97 E6        29.96F FOG
YORK           LGT RAIN  39  39 100 E5        29.94F FOG
$$

PAZ038>040-043-044-047-048-054-055-060>062-067>071-201700-
EASTERN PENNSYLVANIA

CITY           SKY/WX    TMP DP  RH WIND       PRES   REMARKS
SCRANTON       CLOUDY    40  34  79 W3        29.93S
MOUNT POCONO   CLOUDY    32  30  92 S6        29.92F
ALLENTOWN      CLOUDY    40  32  73 SE3       30.00S
QUAKERTOWN*    CLOUDY    36  34  93 CALM      30.00R
READING        RAIN      35  34  96 CALM      29.99R FOG
LANCASTER      LGT RAIN  37  37 100 E6        29.97F FOG
COATESVILLE    LGT RAIN  36  36 100 VRB5      29.99F
POTTSTOWN      CLOUDY    36  33  89 CALM      30.02R
BLUE BELL      CLOUDY    36  34  93 CALM      30.00R
DOYLESTOWN     CLOUDY    40  35  83 CALM      29.99F
WILLOW GROVE   NOT AVBL
NORTH PHILA    CLOUDY    40  34  79 SE3       30.02S
PHILADELPHIA   CLOUDY    40  34  79 CALM      30.03R
$$




USA.gov is the U.S. government's official web portal to all federal, state and local government web resources and services.